Weather in Oktyabrskiy

Russia / Arkhangel'skaya Oblast'     61°05′21″N   43°10′21″E
temp.,
°C
wind,
m/s
gust,
m/s
humid.,
%
clouds,
%
prec.,
mm/h
press.,
hPa
HPBL,
m
21 april, wed
wed2100:00+1se297691 0.0 1026216
03:000ese31179100 0.0 1024273
06:00+2ese41467100 0.0 1021519
09:00+6ese61545100 0.0 1018945
12:00+9se71640100 0.0 10141437
15:00+3se71589100 0.3 10131036
18:00+3se61591100 0.1 1011985
21:00+2se61595100 0.3 1010826
22 april, thu
thu2200:00+2sse51396100 0.3 1009965
03:00+3sse41097100 0.4 1009850
06:00+3s4989100 0.1 1010717
09:00+4ssw4882100 0.1 1011655
12:00+8ssw5864100 0.0 10121268
15:00+9ssw5106497 0.1 10121439
18:00+9s51065100 0.1 10131113
21:00+6s4128287 0.1 1015621
23 april, fri
fri2300:00+5s4119299 0.0 1015447
03:00+4s3109637 0.0 1016340
06:00+4sse310915 0.0 1017331
09:00+11s595856 0.0 10171394
12:00+12sse5957100 0.0 10171179
15:00+13sse585977 0.0 10161344
18:00+12sse41065100 0.0 1016709
21:00+10sse4118297 0.3 1017679
24 april, sat
sat2400:00+8se41089100 2.1 1017392
03:00+7se41194100 2.3 1017351
06:00+6se4118917 0.0 1016350
09:00+11se59675 0.0 1016695
12:00+13se5763100 0.2 10151405
15:00+12se476773 1.1 1013896
18:00+10ese41070100 0.4 1012795
21:00+8ese51177100 0.4 1012688
25 april, sun
sun2500:00+6ese3118642 0.0 1010435
03:00+6e41084100 0.0 1009411
06:00+6e4985100 0.1 1007512
09:00+8e466687 0.1 10061106
12:00+7e3574100 0.1 1005878
15:00+7e3584100 0.3 1005783
18:00+6e2585100 0.1 1004509
21:00+5ene2693100 0.1 1004250